This is the latest recevied weather packets stored in our database for station/object DC1NF-7. If no packets are shown the sender has not sent any weather packets the latest 10 day(s).
| Time | Temp. | Humidity | Pressure | Rain* | Wind** | Luminosity | Snow |
|---|---|---|---|---|---|---|---|
| 1777900552 | 23.89° C | 38% | 1013.1 hPa | 0 mm | - | 530 W/m² | - |
| 1777899948 | 24.44° C | 37% | 1013.1 hPa | 0 mm | - | 470 W/m² | - |
| 1777899343 | 23.89° C | 38% | 1013.2 hPa | 0 mm | - | 649 W/m² | - |
| 1777898740 | 24.44° C | 38% | 1013.2 hPa | 0 mm | - | 754 W/m² | - |
| 1777898136 | 23.33° C | 39% | 1013.4 hPa | 0 mm | - | 576 W/m² | - |
| 1777897533 | 23.33° C | 38% | 1013.4 hPa | 0 mm | - | 652 W/m² | - |
| 1777896929 | 22.78° C | 38% | 1013.5 hPa | 0 mm | - | 507 W/m² | - |
| 1777896327 | 23.33° C | 37% | 1013.5 hPa | 0 mm | - | 566 W/m² | - |
| 1777895724 | 23.33° C | 38% | 1013.7 hPa | 0 mm | - | 807 W/m² | - |
| 1777895120 | 23.33° C | 38% | 1013.7 hPa | 0 mm | - | 812 W/m² | - |
| 1777894516 | 23.33° C | 37% | 1013.7 hPa | 0 mm | - | 520 W/m² | - |
| 1777893973 | 22.78° C | 38% | 1013.9 hPa | 0 mm | - | 594 W/m² | - |
| 1777893368 | 22.78° C | 40% | 1014 hPa | 0 mm | - | 650 W/m² | - |
| 1777892765 | 22.22° C | 39% | 1014 hPa | 0 mm | - | 759 W/m² | - |
| 1777892162 | 22.22° C | 39% | 1014.1 hPa | 0 mm | - | 919 W/m² | - |
| 1777891558 | 22.22° C | 39% | 1014.2 hPa | 0 mm | - | 805 W/m² | - |
| 1777890954 | 22.22° C | 39% | 1014.4 hPa | 0 mm | - | 770 W/m² | - |
| 1777890350 | 21.67° C | 39% | 1014.6 hPa | 0 mm | - | 962 W/m² | - |
| 1777889745 | 21.67° C | 41% | 1014.6 hPa | 0 mm | - | 699 W/m² | - |
| 1777889141 | 20.56° C | 41% | 1014.7 hPa | 0 mm | - | 694 W/m² | - |
| 1777888537 | 20.56° C | 42% | 1014.8 hPa | 0 mm | - | 687 W/m² | - |
| 1777887936 | 21.11° C | 41% | 1014.9 hPa | 0 mm | - | 555 W/m² | - |
| 1777887333 | 21.11° C | 42% | 1014.9 hPa | 0 mm | - | 692 W/m² | - |
| 1777886726 | 21.11° C | 42% | 1015 hPa | 0 mm | - | 724 W/m² | - |
| 1777886123 | 21.67° C | 42% | 1015 hPa | 0 mm | - | 773 W/m² | - |
* Rain latest hour (hover to see other rain measurements)
** Current wind speed in m/s (hover to see current wind gust speed)